QPF
0.00 0.01 0.01 0.00 0.00 0.00 0.00 0.00 0.00 0.00 0.00 0.00 0.00 0.00 0.00 0.00 0.00 0.00 0.00 0.01 0.00 0.00 0.01 0.01 0.01 0.01 0.01 0.01 0.02 0.03 0.04 0.04 0.04 0.05 0.05 0.05 0.04 0.04 0.03 0.02 0.02 0.03 0.04 0.04
0.01 0.00 0.00 0.00 0.00 0.00 0.00 0.00 0.00 0.00 0.00 0.00 0.00 0.00 0.00 0.00 0.00 0.00 0.01 0.00 0.00 0.01 0.01 0.01 0.01 0.01 0.01 0.01 0.02 0.03 0.04 0.05 0.06 0.06 0.05 0.06 0.06 0.05 0.04 0.03 0.02 0.03 0.03 0.03
0.01 0.00 0.00 0.01 0.01 0.01 0.01 0.00 0.01 0.01 0.01 0.00 0.00 0.01 0.01 0.01 0.00 0.00 0.01 0.00 0.01 0.01 0.01 0.01 0.01 0.01 0.02 0.02 0.03 0.04 0.07 0.09 0.09 0.07 0.05 0.05 0.08 0.08 0.07 0.04 0.03 0.02 0.02 0.02
0.01 0.01 0.01 0.01 0.01 0.01 0.01 0.01 0.01 0.01 0.01 0.01 0.01 0.01 0.01 0.01 0.01 0.01 0.01 0.01 0.01 0.01 0.01 0.01 0.01 0.03 0.04 0.02 0.03 0.04 0.06 0.07 0.06 0.06 0.05 0.05 0.05 0.07 0.08 0.06 0.04 0.03 0.02 0.01
0.01 0.01 0.02 0.02 0.01 0.00 0.01 0.01 0.01 0.01 0.01 0.01 0.01 0.01 0.01 0.01 0.00 0.00 0.01 0.01 0.01 0.01 0.01 0.01 0.01 0.02 0.06 0.03 0.02 0.03 0.04 0.04 0.03 0.03 0.04 0.03 0.03 0.03 0.03 0.03 0.04 0.04 0.03 0.02
0.01 0.01 0.02 0.02 0.01 0.00 0.01 0.02 0.01 0.01 0.01 0.01 0.01 0.01 0.01 0.01 0.01 0.01 0.01 0.01 0.01 0.01 0.01 0.01 0.01 0.01 0.03 0.04 0.03 0.03 0.03 0.03 0.03 0.03 0.03 0.03 0.03 0.02 0.02 0.02 0.02 0.03 0.04 0.05
0.01 0.01 0.02 0.01 0.00 0.00 0.01 0.02 0.01 0.01 0.01 0.01 0.01 0.01 0.01 0.01 0.01 0.01 0.01 0.01 0.01 0.01 0.01 0.02 0.02 0.02 0.01 0.02 0.02 0.03 0.04 0.03 0.04 0.04 0.05 0.05 0.04 0.03 0.03 0.03 0.03 0.04 0.05 0.06
0.01 0.02 0.02 0.01 0.01 0.01 0.01 0.01 0.01 0.01 0.01 0.01 0.01 0.01 0.01 0.01 0.00 0.01 0.01 0.01 0.01 0.01 0.01 0.02 0.02 0.02 0.03 0.03 0.02 0.03 0.04 0.05 0.06 0.07 0.06 0.04 0.03 0.03 0.03 0.03 0.03 0.03 0.03 0.02
0.02 0.03 0.03 0.02 0.01 0.01 0.01 0.01 0.01 0.01 0.01 0.01 0.01 0.01 0.01 0.01 0.00 0.01 0.01 0.01 0.01 0.01 0.02 0.02 0.03 0.04 0.04 0.04 0.02 0.02 0.04 0.06 0.08 0.08 0.07 0.06 0.03 0.02 0.02 0.03 0.03 0.02 0.02 0.02
0.03 0.04 0.04 0.02 0.01 0.01 0.01 0.01 0.01 0.01 0.01 0.01 0.01 0.01 0.01 0.01 0.00 0.01 0.01 0.01 0.01 0.01 0.03 0.05 0.05 0.04 0.06 0.06 0.03 0.03 0.04 0.06 0.07 0.07 0.06 0.05 0.03 0.02 0.02 0.02 0.03 0.03 0.02 0.02
0.04 0.03 0.02 0.01 0.01 0.01 0.01 0.01 0.01 0.02 0.02 0.02 0.02 0.01 0.01 0.01 0.01 0.01 0.02 0.01 0.01 0.01 0.03 0.06 0.07 0.06 0.06 0.07 0.04 0.03 0.04 0.05 0.05 0.05 0.06 0.05 0.05 0.04 0.03 0.03 0.03 0.03 0.03 0.04
0.06 0.04 0.03 0.02 0.02 0.01 0.01 0.02 0.02 0.02 0.02 0.02 0.03 0.04 0.02 0.02 0.01 0.01 0.02 0.02 0.01 0.02 0.02 0.05 0.08 0.09 0.09 0.09 0.05 0.04 0.03 0.04 0.04 0.04 0.05 0.05 0.04 0.03 0.03 0.02 0.02 0.02 0.02 0.02
0.05 0.03 0.03 0.02 0.02 0.01 0.02 0.03 0.03 0.02 0.02 0.02 0.03 0.04 0.05 0.05 0.04 0.03 0.02 0.02 0.02 0.01 0.02 0.04 0.06 0.08 0.09 0.09 0.07 0.04 0.03 0.03 0.04 0.04 0.05 0.04 0.04 0.04 0.03 0.03 0.03 0.03 0.02 0.02
0.06 0.05 0.03 0.03 0.03 0.02 0.02 0.02 0.03 0.03 0.03 0.03 0.03 0.03 0.03 0.04 0.05 0.06 0.06 0.05 0.03 0.02 0.02 0.04 0.04 0.05 0.07 0.07 0.06 0.04 0.03 0.04 0.04 0.04 0.03 0.03 0.03 0.03 0.03 0.03 0.04 0.04 0.04 0.03
0.06 0.06 0.05 0.04 0.04 0.03 0.02 0.02 0.03 0.03 0.02 0.03 0.03 0.04 0.05 0.05 0.05 0.06 0.07 0.07 0.05 0.05 0.04 0.06 0.07 0.06 0.06 0.06 0.05 0.04 0.05 0.05 0.04 0.04 0.03 0.02 0.02 0.02 0.03 0.03 0.04 0.05 0.05 0.06
0.02 0.03 0.03 0.03 0.03 0.02 0.03 0.03 0.04 0.02 0.02 0.02 0.03 0.04 0.05 0.06 0.06 0.07 0.06 0.06 0.05 0.05 0.06 0.05 0.05 0.05 0.04 0.05 0.05 0.06 0.06 0.04 0.03 0.03 0.02 0.03 0.02 0.02 0.03 0.03 0.04 0.05 0.06 0.06
0.02 0.02 0.02 0.02 0.03 0.03 0.02 0.02 0.02 0.02 0.01 0.02 0.03 0.03 0.03 0.04 0.05 0.07 0.07 0.06 0.05 0.05 0.05 0.05 0.04 0.02 0.02 0.02 0.04 0.04 0.04 0.03 0.02 0.02 0.01 0.01 0.02 0.02 0.03 0.03 0.04 0.04 0.05 0.05
0.01 0.01 0.02 0.03 0.03 0.02 0.02 0.02 0.01 0.01 0.01 0.02 0.02 0.02 0.02 0.03 0.05 0.05 0.06 0.06 0.05 0.05 0.05 0.06 0.04 0.02 0.01 0.02 0.03 0.03 0.02 0.02 0.01 0.01 0.01 0.01 0.02 0.03 0.03 0.03 0.03 0.02 0.03 0.04
0.01 0.01 0.02 0.02 0.02 0.02 0.02 0.03 0.02 0.01 0.01 0.02 0.02 0.03 0.03 0.03 0.03 0.04 0.04 0.05 0.05 0.04 0.04 0.04 0.04 0.03 0.02 0.02 0.02 0.03 0.02 0.02 0.01 0.01 0.01 0.01 0.02 0.03 0.03 0.02 0.02 0.02 0.03 0.04
0.01 0.02 0.02 0.02 0.02 0.03 0.04 0.05 0.04 0.02 0.01 0.02 0.03 0.04 0.05 0.04 0.03 0.03 0.04 0.04 0.04 0.04 0.04 0.02 0.02 0.02 0.02 0.02 0.01 0.02 0.03 0.02 0.02 0.01 0.01 0.01 0.02 0.02 0.03 0.03 0.02 0.02 0.02 0.02
0.01 0.02 0.02 0.01 0.01 0.03 0.04 0.04 0.04 0.02 0.02 0.03 0.04 0.05 0.09 0.09 0.05 0.05 0.05 0.04 0.04 0.03 0.03 0.02 0.01 0.01 0.02 0.02 0.02 0.02 0.02 0.03 0.03 0.02 0.02 0.01 0.02 0.03 0.03 0.03 0.02 0.02 0.03 0.02
0.01 0.01 0.01 0.01 0.03 0.04 0.04 0.03 0.03 0.03 0.03 0.03 0.04 0.05 0.07 0.08 0.08 0.07 0.06 0.06 0.05 0.03 0.02 0.01 0.02 0.02 0.02 0.02 0.02 0.02 0.02 0.02 0.02 0.02 0.02 0.01 0.02 0.02 0.02 0.02 0.03 0.04 0.03 0.03
0.01 0.01 0.02 0.02 0.02 0.03 0.02 0.02 0.02 0.03 0.03 0.03 0.04 0.04 0.04 0.05 0.07 0.06 0.04 0.04 0.04 0.03 0.02 0.01 0.02 0.02 0.02 0.02 0.02 0.01 0.01 0.01 0.02 0.02 0.02 0.02 0.01 0.02 0.02 0.02 0.03 0.04 0.04 0.03
0.01 0.02 0.02 0.01 0.01 0.01 0.02 0.02 0.02 0.02 0.02 0.03 0.03 0.03 0.03 0.04 0.04 0.03 0.02 0.03 0.03 0.03 0.02 0.02 0.03 0.03 0.02 0.02 0.02 0.03 0.02 0.02 0.02 0.02 0.03 0.02 0.02 0.02 0.02 0.03 0.04 0.05 0.05 0.03
0.02 0.03 0.03 0.02 0.01 0.01 0.02 0.03 0.02 0.02 0.02 0.04 0.05 0.05 0.03 0.03 0.03 0.02 0.02 0.03 0.03 0.03 0.03 0.03 0.04 0.03 0.03 0.03 0.04 0.03 0.03 0.03 0.03 0.03 0.03 0.03 0.03 0.03 0.03 0.04 0.05 0.06 0.05 0.04
0.03 0.03 0.04 0.03 0.02 0.02 0.03 0.04 0.04 0.04 0.04 0.05 0.06 0.05 0.04 0.03 0.03 0.02 0.02 0.02 0.03 0.04 0.04 0.03 0.03 0.03 0.03 0.04 0.04 0.04 0.04 0.03 0.03 0.03 0.02 0.02 0.02 0.03 0.04 0.05 0.06 0.06 0.05 0.04
0.04 0.03 0.02 0.03 0.04 0.04 0.04 0.05 0.06 0.04 0.03 0.03 0.02 0.02 0.04 0.06 0.05 0.03 0.02 0.01 0.02 0.02 0.02 0.02 0.02 0.02 0.02 0.03 0.04 0.04 0.04 0.03 0.03 0.03 0.03 0.03 0.03 0.04 0.05 0.05 0.05 0.05 0.04 0.04
MSLP
1019.55 1019.82 1020.06 1020.27 1020.45 1020.61 1020.76 1020.89 1021.04 1021.18 1021.33 1021.47 1021.57 1021.62 1021.57 1021.42 1021.16 1020.78 1020.29 1019.74 1019.15 1018.57 1018.02 1017.55 1017.15 1016.83 1016.58 1016.36 1016.14 1015.91 1015.64 1015.33 1014.98 1014.60 1014.23 1013.86 1013.53 1013.23 1012.96 1012.70 1012.43 1012.12 1011.76 1011.34
1020.07 1020.39 1020.67 1020.91 1021.09 1021.23 1021.33 1021.39 1021.43 1021.46 1021.47 1021.47 1021.45 1021.38 1021.26 1021.06 1020.78 1020.41 1019.96 1019.46 1018.91 1018.37 1017.85 1017.38 1016.97 1016.62 1016.32 1016.06 1015.80 1015.53 1015.24 1014.92 1014.57 1014.21 1013.84 1013.49 1013.17 1012.88 1012.62 1012.38 1012.13 1011.86 1011.54 1011.17
1020.47 1020.81 1021.11 1021.35 1021.53 1021.65 1021.71 1021.72 1021.69 1021.63 1021.56 1021.47 1021.37 1021.24 1021.07 1020.85 1020.57 1020.22 1019.81 1019.35 1018.85 1018.33 1017.83 1017.36 1016.92 1016.53 1016.19 1015.87 1015.56 1015.25 1014.92 1014.57 1014.21 1013.83 1013.45 1013.09 1012.76 1012.47 1012.21 1011.97 1011.73 1011.49 1011.22 1010.91
1020.75 1021.08 1021.37 1021.61 1021.78 1021.89 1021.93 1021.91 1021.86 1021.77 1021.67 1021.55 1021.41 1021.26 1021.09 1020.87 1020.60 1020.27 1019.88 1019.44 1018.96 1018.45 1017.94 1017.45 1016.98 1016.54 1016.14 1015.77 1015.40 1015.04 1014.67 1014.29 1013.89 1013.49 1013.08 1012.69 1012.33 1012.01 1011.72 1011.46 1011.23 1011.00 1010.77 1010.51
1020.92 1021.23 1021.49 1021.71 1021.87 1021.97 1022.01 1022.01 1021.97 1021.90 1021.81 1021.71 1021.60 1021.46 1021.29 1021.09 1020.83 1020.51 1020.12 1019.67 1019.18 1018.66 1018.12 1017.58 1017.07 1016.59 1016.13 1015.71 1015.30 1014.89 1014.48 1014.06 1013.63 1013.18 1012.74 1012.30 1011.89 1011.52 1011.19 1010.90 1010.64 1010.41 1010.19 1009.98
1021.00 1021.27 1021.49 1021.68 1021.83 1021.93 1021.99 1022.02 1022.02 1022.00 1021.97 1021.92 1021.85 1021.75 1021.60 1021.40 1021.14 1020.81 1020.40 1019.92 1019.40 1018.83 1018.25 1017.67 1017.12 1016.59 1016.10 1015.64 1015.20 1014.76 1014.33 1013.87 1013.41 1012.92 1012.43 1011.95 1011.48 1011.05 1010.66 1010.31 1010.02 1009.77 1009.56 1009.36
1021.02 1021.23 1021.41 1021.57 1021.70 1021.80 1021.89 1021.96 1022.02 1022.06 1022.09 1022.10 1022.07 1022.00 1021.88 1021.68 1021.40 1021.03 1020.58 1020.06 1019.48 1018.87 1018.25 1017.63 1017.05 1016.50 1015.99 1015.52 1015.07 1014.63 1014.18 1013.72 1013.23 1012.72 1012.19 1011.65 1011.13 1010.63 1010.18 1009.78 1009.44 1009.16 1008.93 1008.74
1020.98 1021.15 1021.29 1021.41 1021.52 1021.63 1021.73 1021.84 1021.94 1022.04 1022.12 1022.17 1022.17 1022.12 1021.99 1021.77 1021.46 1021.05 1020.55 1019.98 1019.36 1018.71 1018.05 1017.42 1016.83 1016.29 1015.80 1015.34 1014.92 1014.50 1014.06 1013.60 1013.11 1012.58 1012.02 1011.44 1010.87 1010.33 1009.82 1009.37 1008.98 1008.66 1008.41 1008.21
1020.92 1021.05 1021.15 1021.25 1021.34 1021.44 1021.55 1021.66 1021.79 1021.91 1022.01 1022.08 1022.09 1022.02 1021.87 1021.62 1021.26 1020.81 1020.26 1019.65 1019.00 1018.33 1017.68 1017.06 1016.50 1015.99 1015.54 1015.14 1014.75 1014.37 1013.97 1013.53 1013.05 1012.52 1011.94 1011.35 1010.75 1010.16 1009.62 1009.13 1008.71 1008.35 1008.07 1007.85
1020.84 1020.94 1021.02 1021.09 1021.17 1021.25 1021.34 1021.45 1021.57 1021.68 1021.76 1021.81 1021.79 1021.69 1021.50 1021.21 1020.81 1020.32 1019.74 1019.12 1018.46 1017.81 1017.19 1016.62 1016.11 1015.67 1015.28 1014.94 1014.61 1014.28 1013.92 1013.51 1013.05 1012.53 1011.96 1011.35 1010.75 1010.15 1009.60 1009.09 1008.65 1008.28 1007.97 1007.73
1020.74 1020.84 1020.91 1020.96 1021.01 1021.07 1021.14 1021.21 1021.29 1021.35 1021.39 1021.39 1021.32 1021.18 1020.94 1020.60 1020.17 1019.66 1019.09 1018.47 1017.85 1017.25 1016.68 1016.18 1015.75 1015.38 1015.07 1014.79 1014.53 1014.24 1013.92 1013.54 1013.10 1012.60 1012.04 1011.46 1010.86 1010.28 1009.74 1009.25 1008.81 1008.44 1008.13 1007.87
1020.62 1020.72 1020.79 1020.83 1020.86 1020.89 1020.92 1020.94 1020.96 1020.96 1020.94 1020.88 1020.75 1020.55 1020.27 1019.91 1019.47 1018.96 1018.42 1017.85 1017.28 1016.75 1016.27 1015.85 1015.49 1015.20 1014.95 1014.73 1014.51 1014.26 1013.97 1013.61 1013.19 1012.71 1012.18 1011.62 1011.06 1010.52 1010.01 1009.56 1009.16 1008.81 1008.51 1008.25
1020.46 1020.57 1020.65 1020.69 1020.70 1020.69 1020.67 1020.64 1020.60 1020.54 1020.45 1020.32 1020.14 1019.90 1019.60 1019.24 1018.81 1018.34 1017.85 1017.34 1016.85 1016.40 1016.00 1015.66 1015.37 1015.14 1014.94 1014.75 1014.55 1014.31 1014.03 1013.68 1013.27 1012.81 1012.31 1011.80 1011.28 1010.80 1010.36 1009.97 1009.62 1009.32 1009.06 1008.80
1020.26 1020.39 1020.46 1020.50 1020.49 1020.45 1020.39 1020.31 1020.21 1020.09 1019.95 1019.77 1019.56 1019.31 1019.01 1018.66 1018.28 1017.86 1017.43 1017.01 1016.59 1016.22 1015.89 1015.60 1015.37 1015.16 1014.98 1014.80 1014.60 1014.36 1014.07 1013.72 1013.32 1012.88 1012.42 1011.95 1011.50 1011.09 1010.72 1010.40 1010.13 1009.90 1009.68 1009.46
1020.01 1020.15 1020.23 1020.25 1020.23 1020.16 1020.06 1019.94 1019.80 1019.63 1019.45 1019.26 1019.04 1018.79 1018.52 1018.21 1017.88 1017.53 1017.17 1016.82 1016.48 1016.16 1015.88 1015.63 1015.41 1015.21 1015.03 1014.83 1014.61 1014.35 1014.05 1013.70 1013.31 1012.90 1012.47 1012.06 1011.68 1011.34 1011.05 1010.82 1010.62 1010.45 1010.29 1010.12
1019.74 1019.88 1019.95 1019.96 1019.92 1019.82 1019.69 1019.54 1019.36 1019.18 1018.99 1018.79 1018.58 1018.36 1018.12 1017.86 1017.59 1017.30 1017.00 1016.70 1016.41 1016.13 1015.87 1015.63 1015.41 1015.20 1014.99 1014.77 1014.53 1014.25 1013.94 1013.60 1013.23 1012.85 1012.47 1012.11 1011.79 1011.53 1011.31 1011.15 1011.03 1010.93 1010.83 1010.71
1019.48 1019.60 1019.65 1019.64 1019.57 1019.45 1019.29 1019.11 1018.92 1018.73 1018.54 1018.35 1018.16 1017.97 1017.77 1017.56 1017.33 1017.09 1016.83 1016.57 1016.30 1016.03 1015.78 1015.53 1015.29 1015.05 1014.82 1014.57 1014.32 1014.03 1013.73 1013.40 1013.06 1012.72 1012.40 1012.10 1011.85 1011.64 1011.49 1011.38 1011.31 1011.26 1011.21 1011.14
1019.25 1019.34 1019.36 1019.32 1019.22 1019.07 1018.89 1018.70 1018.49 1018.30 1018.10 1017.93 1017.76 1017.59 1017.42 1017.24 1017.04 1016.82 1016.58 1016.32 1016.05 1015.78 1015.51 1015.24 1014.98 1014.72 1014.47 1014.22 1013.97 1013.70 1013.42 1013.13 1012.84 1012.55 1012.28 1012.04 1011.84 1011.67 1011.56 1011.49 1011.45 1011.42 1011.40 1011.36
1019.08 1019.13 1019.11 1019.04 1018.90 1018.72 1018.52 1018.31 1018.09 1017.89 1017.70 1017.52 1017.36 1017.19 1017.03 1016.85 1016.65 1016.42 1016.17 1015.90 1015.61 1015.32 1015.03 1014.74 1014.47 1014.21 1013.96 1013.73 1013.50 1013.27 1013.04 1012.81 1012.58 1012.35 1012.13 1011.94 1011.77 1011.63 1011.53 1011.47 1011.43 1011.40 1011.39 1011.36
1018.96 1018.97 1018.91 1018.79 1018.62 1018.42 1018.19 1017.95 1017.72 1017.51 1017.30 1017.12 1016.94 1016.76 1016.58 1016.37 1016.15 1015.89 1015.61 1015.31 1015.00 1014.68 1014.37 1014.08 1013.81 1013.56 1013.35 1013.15 1012.97 1012.81 1012.64 1012.48 1012.31 1012.14 1011.97 1011.81 1011.66 1011.53 1011.42 1011.33 1011.27 1011.22 1011.19 1011.15
1018.87 1018.83 1018.73 1018.58 1018.37 1018.14 1017.89 1017.64 1017.39 1017.15 1016.93 1016.71 1016.51 1016.29 1016.07 1015.82 1015.55 1015.25 1014.94 1014.60 1014.26 1013.93 1013.61 1013.33 1013.08 1012.87 1012.70 1012.56 1012.45 1012.35 1012.26 1012.16 1012.05 1011.93 1011.80 1011.66 1011.51 1011.37 1011.24 1011.12 1011.02 1010.94 1010.87 1010.81
1018.76 1018.68 1018.54 1018.35 1018.12 1017.87 1017.60 1017.33 1017.06 1016.80 1016.55 1016.30 1016.06 1015.80 1015.52 1015.23 1014.91 1014.57 1014.21 1013.85 1013.49 1013.15 1012.85 1012.59 1012.38 1012.22 1012.11 1012.03 1011.99 1011.96 1011.93 1011.89 1011.83 1011.75 1011.64 1011.51 1011.36 1011.20 1011.04 1010.89 1010.74 1010.61 1010.50 1010.41
1018.57 1018.45 1018.28 1018.06 1017.82 1017.55 1017.27 1016.99 1016.71 1016.44 1016.16 1015.88 1015.59 1015.29 1014.97 1014.63 1014.27 1013.89 1013.51 1013.13 1012.78 1012.46 1012.18 1011.96 1011.80 1011.69 1011.64 1011.63 1011.64 1011.67 1011.69 1011.70 1011.67 1011.61 1011.52 1011.39 1011.23 1011.05 1010.87 1010.68 1010.50 1010.34 1010.19 1010.06
1018.27 1018.11 1017.91 1017.68 1017.43 1017.16 1016.88 1016.60 1016.31 1016.03 1015.74 1015.44 1015.12 1014.79 1014.44 1014.07 1013.69 1013.29 1012.91 1012.54 1012.20 1011.91 1011.68 1011.50 1011.39 1011.35 1011.35 1011.39 1011.45 1011.51 1011.57 1011.60 1011.59 1011.54 1011.45 1011.32 1011.15 1010.97 1010.77 1010.57 1010.37 1010.19 1010.02 1009.87
1017.82 1017.63 1017.42 1017.18 1016.92 1016.66 1016.39 1016.12 1015.85 1015.57 1015.28 1014.97 1014.65 1014.31 1013.95 1013.58 1013.19 1012.81 1012.45 1012.11 1011.81 1011.57 1011.38 1011.26 1011.20 1011.20 1011.25 1011.32 1011.41 1011.50 1011.57 1011.60 1011.60 1011.55 1011.46 1011.33 1011.17 1010.98 1010.79 1010.59 1010.39 1010.21 1010.04 1009.88
1017.27 1017.05 1016.82 1016.57 1016.33 1016.08 1015.83 1015.58 1015.32 1015.06 1014.79 1014.50 1014.20 1013.87 1013.53 1013.18 1012.82 1012.47 1012.15 1011.86 1011.62 1011.43 1011.30 1011.23 1011.22 1011.26 1011.33 1011.43 1011.53 1011.62 1011.68 1011.71 1011.71 1011.66 1011.57 1011.44 1011.29 1011.12 1010.94 1010.76 1010.58 1010.41 1010.25 1010.09
1016.67 1016.43 1016.18 1015.93 1015.69 1015.46 1015.23 1015.00 1014.78 1014.55 1014.31 1014.05 1013.78 1013.49 1013.19 1012.88 1012.58 1012.28 1012.02 1011.79 1011.61 1011.48 1011.40 1011.38 1011.41 1011.47 1011.57 1011.67 1011.76 1011.85 1011.90 1011.92 1011.91 1011.85 1011.77 1011.65 1011.51 1011.36 1011.20 1011.05 1010.89 1010.73 1010.58 1010.43
Thickness
5709 5713 5712 5710 5710 5711 5710 5714 5712 5717 5716 5716 5718 5718 5719 5721 5722 5722 5723 5723 5723 5723 5722 5723 5723 5723 5722 5721 5720 5719 5716 5712 5710 5708 5705 5704 5702 5702 5701 5699 5698 5697 5697 5696
5695 5703 5702 5699 5702 5704 5705 5707 5708 5708 5707 5713 5715 5714 5712 5712 5713 5713 5714 5715 5715 5715 5714 5714 5714 5714 5714 5713 5712 5710 5708 5705 5703 5701 5699 5697 5696 5695 5693 5692 5691 5690 5689 5689
5686 5694 5691 5684 5693 5695 5695 5699 5699 5695 5698 5703 5701 5700 5701 5703 5705 5704 5705 5705 5705 5705 5706 5706 5706 5706 5705 5704 5703 5701 5699 5698 5697 5695 5693 5691 5690 5689 5687 5685 5685 5683 5683 5682
5681 5677 5664 5682 5696 5694 5689 5689 5692 5691 5693 5694 5693 5695 5697 5698 5696 5695 5696 5696 5696 5697 5698 5699 5699 5699 5698 5697 5696 5694 5692 5692 5691 5689 5686 5685 5683 5681 5680 5678 5677 5676 5676 5675
5673 5670 5670 5678 5684 5683 5678 5675 5683 5682 5683 5686 5689 5689 5690 5689 5688 5687 5687 5687 5688 5689 5691 5691 5692 5692 5691 5690 5689 5687 5686 5685 5684 5682 5680 5678 5676 5674 5673 5671 5670 5669 5668 5668
5665 5658 5655 5667 5677 5680 5673 5662 5675 5676 5674 5676 5678 5674 5678 5678 5678 5679 5679 5680 5681 5683 5684 5684 5684 5685 5683 5682 5681 5680 5680 5679 5677 5676 5674 5672 5669 5667 5666 5665 5663 5663 5662 5661
5657 5654 5660 5665 5670 5670 5654 5655 5666 5669 5668 5668 5667 5666 5668 5670 5670 5671 5672 5672 5673 5674 5674 5675 5676 5676 5675 5674 5673 5673 5673 5672 5671 5669 5667 5665 5662 5661 5660 5659 5657 5656 5655 5654
5650 5645 5646 5657 5658 5653 5651 5657 5658 5659 5661 5660 5660 5660 5661 5661 5662 5663 5664 5665 5666 5666 5666 5667 5668 5668 5667 5666 5667 5666 5665 5664 5663 5661 5660 5659 5656 5654 5654 5652 5650 5649 5648 5647
5645 5643 5645 5649 5647 5649 5650 5648 5650 5652 5654 5653 5652 5651 5652 5653 5654 5655 5656 5658 5658 5658 5658 5659 5660 5660 5659 5659 5659 5658 5657 5655 5655 5654 5653 5652 5650 5649 5647 5646 5647 5646 5645 5644
5634 5638 5640 5641 5641 5641 5642 5641 5643 5645 5646 5646 5644 5644 5645 5645 5646 5647 5648 5649 5651 5650 5650 5650 5652 5653 5652 5652 5651 5650 5648 5647 5647 5647 5646 5645 5645 5644 5643 5642 5640 5639 5638 5638
5626 5629 5630 5631 5632 5633 5633 5634 5635 5637 5637 5637 5637 5637 5637 5637 5638 5639 5640 5642 5642 5642 5642 5643 5644 5645 5645 5644 5643 5641 5640 5639 5640 5641 5640 5637 5636 5635 5635 5633 5632 5630 5631 5630
5620 5622 5621 5621 5624 5626 5625 5625 5627 5628 5629 5630 5630 5629 5630 5630 5630 5630 5631 5633 5634 5634 5634 5635 5636 5636 5636 5636 5635 5633 5632 5633 5635 5635 5633 5632 5630 5627 5622 5622 5619 5618 5617 5618
5615 5617 5617 5617 5618 5619 5618 5619 5620 5621 5620 5621 5622 5622 5622 5623 5623 5622 5622 5623 5623 5624 5625 5626 5627 5628 5628 5628 5628 5627 5626 5627 5628 5628 5626 5624 5623 5622 5619 5614 5610 5609 5609 5607
5611 5610 5609 5610 5611 5613 5613 5613 5614 5614 5614 5614 5614 5614 5615 5615 5615 5614 5613 5614 5615 5616 5617 5618 5619 5619 5619 5620 5620 5619 5619 5619 5619 5619 5619 5618 5616 5615 5615 5613 5611 5608 5603 5600
5606 5606 5606 5606 5605 5606 5607 5607 5607 5607 5607 5607 5607 5607 5607 5606 5606 5606 5606 5607 5608 5608 5609 5610 5610 5611 5611 5612 5611 5611 5611 5612 5612 5612 5612 5611 5610 5609 5609 5608 5607 5604 5602 5597
5600 5601 5600 5599 5598 5599 5600 5601 5601 5601 5601 5601 5601 5600 5601 5600 5600 5600 5600 5601 5600 5601 5601 5601 5602 5603 5604 5604 5603 5603 5604 5602 5602 5604 5605 5604 5603 5603 5603 5602 5600 5599 5597 5595
5591 5591 5591 5591 5592 5593 5594 5595 5596 5596 5597 5596 5595 5595 5595 5595 5594 5594 5593 5594 5594 5594 5594 5594 5594 5595 5596 5596 5597 5598 5598 5596 5594 5597 5598 5598 5597 5597 5597 5596 5595 5593 5592 5589
5588 5588 5587 5587 5587 5588 5589 5590 5591 5592 5592 5591 5591 5590 5588 5587 5586 5587 5587 5587 5587 5588 5588 5588 5588 5588 5589 5590 5591 5592 5593 5593 5593 5593 5593 5592 5592 5592 5592 5590 5590 5588 5586 5584
5583 5583 5582 5582 5583 5584 5584 5585 5586 5586 5586 5586 5585 5583 5582 5581 5581 5581 5581 5581 5581 5580 5581 5582 5578 5580 5582 5583 5583 5585 5587 5588 5588 5588 5587 5585 5587 5588 5588 5587 5585 5584 5582 5579
5578 5578 5577 5578 5579 5579 5579 5580 5581 5581 5582 5581 5579 5578 5577 5576 5576 5576 5575 5574 5575 5574 5574 5573 5574 5575 5576 5577 5576 5582 5584 5584 5584 5584 5583 5583 5583 5583 5583 5582 5580 5579 5577 5575
5571 5572 5572 5573 5573 5574 5575 5575 5576 5575 5576 5575 5573 5572 5571 5570 5570 5569 5568 5568 5567 5566 5566 5565 5567 5569 5570 5570 5569 5577 5579 5578 5579 5579 5579 5578 5578 5578 5577 5576 5575 5573 5571 5569
5567 5567 5568 5569 5569 5569 5569 5570 5569 5569 5568 5568 5567 5567 5566 5564 5564 5563 5562 5561 5561 5557 5560 5563 5563 5561 5561 5561 5568 5572 5573 5572 5573 5573 5574 5574 5573 5572 5571 5570 5568 5566 5564 5562
5563 5563 5564 5564 5564 5563 5563 5563 5563 5562 5561 5561 5560 5560 5559 5559 5560 5559 5557 5556 5556 5552 5555 5556 5553 5551 5551 5558 5563 5565 5566 5566 5566 5567 5568 5568 5568 5567 5565 5564 5562 5560 5558 5556
5559 5558 5559 5559 5559 5557 5556 5557 5556 5556 5555 5555 5555 5554 5553 5553 5553 5554 5552 5549 5547 5546 5550 5548 5545 5545 5546 5555 5557 5558 5559 5559 5560 5561 5561 5562 5562 5561 5560 5558 5557 5555 5552 5550
5554 5555 5555 5554 5553 5553 5551 5551 5551 5550 5551 5551 5550 5549 5549 5548 5548 5547 5546 5545 5542 5542 5545 5543 5541 5541 5546 5551 5552 5553 5553 5553 5554 5554 5554 5554 5555 5555 5553 5552 5551 5549 5546 5544
5551 5551 5551 5549 5549 5547 5547 5547 5547 5547 5546 5545 5544 5545 5544 5544 5543 5542 5541 5541 5540 5539 5541 5542 5541 5540 5544 5546 5547 5547 5547 5547 5547 5547 5547 5548 5548 5547 5546 5545 5542 5541 5539 5537
5548 5548 5546 5546 5546 5545 5544 5542 5541 5541 5541 5539 5538 5539 5539 5539 5539 5539 5538 5538 5538 5539 5539 5539 5539 5539 5540 5541 5541 5541 5541 5541 5541 5540 5541 5541 5541 5540 5539 5537 5536 5535 5533 5531